#timestamp,LO_Frequency,Hit,StdDev 
1561060815.5,286047003.2,N
1561060835.4,286047003.2,N
1561060855.2,286047004.2,N
1561060875.0,286047001.9,N
1561060875.9,286047001.9,N
1561060895.8,286047003.8,N
1561060915.6,286047003.3,N
1561060935.5,286047001.5,N
1561060955.3,286047001.7,N
1561060975.1,286047001.3,N
1561060995.9,286047003.3,N
1561061015.7,286047004.3,Y
1561061035.5,286046999.0,P
1561061055.4,286047002.1,N
1561061075.2,286046999.8,N
1561061095.1,286047000.9,N
1561061096.0,286047000.9,N
1561061115.8,286047004.1,Y
1561061135.6,286047009.2,P
1561061155.5,286047007.1,N
1561061175.3,286047003.0,N
1561061195.2,286047005.1,N
1561061215.9,286047005.4,N
1561061235.7,286047005.2,N
1561061255.6,286047004.1,N
1561061275.4,286047002.6,N
1561061295.2,286047004.3,N
1561061315.1,286047001.6,N
1561061316.0,286047001.6,N
1561061335.8,286046999.8,N
1561061355.7,286047001.8,N
1561061375.5,286047001.9,N
1561061395.3,286047002.6,N
1561061415.2,286047002.6,N
1561061435.0,286047006.7,N
1561061435.9,286047006.7,N
1561061455.8,286047010.5,Y
1561061475.6,286047008.3,P
1561061495.4,286047012.8,P
1561061515.3,286047008.2,N
1561061535.1,286047007.9,N
1561061555.8,286047006.8,N
1561061575.7,286047005.9,N
1561061595.5,286047005.2,N
1561061615.4,286047004.8,N
1561061635.2,286047008.6,Y
1561061655.0,286047002.0,P
1561061655.9,286047002.0,N
1561061675.8,286046998.6,N
1561061695.6,286047003.2,N
1561061715.5,286047007.3,N
1561061735.3,286047011.3,Y
1561061755.1,286047014.4,P
1561061775.9,286047018.3,P
1561061795.7,286047020.8,P
1561061815.5,286047024.9,Y
1561061835.4,286047010.7,P
1561061855.2,286047011.4,P
1561061875.1,286047013.1,P
1561061876.0,286047013.1,Y
1561061895.8,286047005.2,P
1561061915.6,286047005.6,N
1561061935.5,286047003.9,N
1561061955.3,286047005.8,N
1561061975.2,286047004.7,N
1561061995.9,286047009.2,Y
1561062015.7,286047003.5,P
1561062035.6,286047007.0,P
1561062055.4,286047008.0,P
1561062075.3,286047008.7,Y
1561062095.1,286047002.1,P
1561062096.0,286047002.1,N
1561062115.8,286047005.6,N
1561062135.7,286047010.8,Y
1561062155.5,286047007.0,P
1561062175.4,286047009.0,P
1561062195.2,286047012.3,P
1561062215.0,286047011.0,Y
1561062215.9,286047011.0,P
1561062235.8,286047002.1,N
1561062255.6,286046996.6,N
1561062275.4,286046998.8,N
1561062295.3,286047001.2,N
1561062315.1,286047001.3,N
1561062335.9,286047004.4,N
1561062355.7,286047004.3,N
1561062375.5,286047005.2,N
1561062395.4,286047006.2,N
1561062415.2,286047008.4,N
1561062435.1,286047009.4,N
1561062436.0,286047009.4,N
1561062455.8,286047010.1,N
1561062475.6,286047010.8,N
1561062495.5,286047013.8,Y
1561062515.3,286047009.3,P
1561062535.2,286047011.1,P
1561062555.9,286047014.8,P
1561062575.7,286047018.0,Y
1561062595.6,286047004.7,P
1561062615.4,286047008.4,P
1561062635.2,286047008.4,P
1561062655.1,286047009.2,Y
1561062656.0,286047009.2,P
1561062675.8,286047001.0,N
1561062695.7,286047002.2,N
1561062715.5,286047007.5,N
1561062735.3,286047010.7,Y
1561062755.2,286047007.4,P
1561062775.0,286047006.7,P
1561062775.9,286047006.7,P
1561062795.8,286047007.6,Y
1561062815.6,286047002.2,P
1561062835.4,286047001.9,N
1561062855.3,286047001.3,N
1561062875.1,286047009.9,Y
1561062895.9,286047009.2,P
1561062915.7,286047008.4,N
1561062935.5,286047009.7,P
1561062955.4,286047010.7,Y
1561062975.2,286047002.4,P
1561062995.1,286047000.5,N
1561062996.0,286047000.5,N
1561063015.8,286047000.0,N
1561063035.6,286046992.5,N
1561063055.5,286046984.3,Y
1561063075.3,286046978.2,P
1561063095.1,286046979.5,N
1561063115.9,286046979.9,N
1561063135.7,286046977.1,N
1561063155.6,286046975.7,N
1561063175.4,286046978.6,N
1561063195.2,286046985.2,N
1561063215.1,286046989.6,N
1561063216.0,286046989.6,N
1561063235.8,286046989.9,N
1561063255.7,286046989.5,N
1561063275.5,286046991.1,N
1561063295.3,286046989.2,N
1561063315.2,286046992.6,N
1561063335.0,286046993.7,N
1561063335.9,286046993.7,N
1561063355.7,286046995.1,N
1561063375.6,286046996.5,N
1561063395.4,286046997.5,N
1561063415.3,286046997.0,N
1561063435.1,286046999.0,N
1561063436.0,286046999.0,N
1561063455.8,286047001.0,N
1561063475.7,286047000.0,N
1561063495.5,286046998.8,N
1561063515.3,286046999.5,N
1561063535.2,286046996.5,N
1561063555.0,286046998.4,N
1561063555.9,286046998.4,N
1561063575.8,286046998.1,N
1561063595.6,286046998.3,N
1561063615.4,286046997.7,N
1561063635.3,286046997.6,N
1561063655.1,286046998.8,N
1561063675.9,286046999.3,N
1561063695.7,286046998.7,N
1561063715.5,286047002.0,N
1561063735.4,286047003.6,N
1561063755.2,286047006.8,N
1561063775.0,286047008.2,N
1561063775.9,286047008.2,N
1561063795.8,286047005.5,N
1561063815.6,286047001.1,N
1561063835.5,286046998.0,N
1561063855.3,286046995.5,N
1561063875.1,286046994.5,N
1561063895.9,286046993.0,N
1561063915.7,286046996.0,N
1561063935.5,286046999.1,N
1561063955.4,286046995.2,N
1561063975.2,286047000.3,N
1561063995.1,286046996.5,N
1561063996.0,286046996.5,N
1561064015.8,286046997.3,N
1561064035.6,286046998.9,N
1561064055.5,286046996.7,N
1561064075.3,286046996.7,N
1561064095.2,286047000.1,N
1561064115.9,286047003.6,N
1561064135.7,286047005.9,N
1561064155.6,286047006.7,N
1561064175.4,286047010.2,N
1561064195.2,286047005.2,N
1561064215.1,286047003.3,N
1561064216.0,286047003.3,N
1561064235.8,286047001.0,N
1561064255.7,286046997.3,N
1561064275.5,286046997.3,N
1561064295.3,286046998.7,N
1561064315.2,286046999.9,N
1561064335.0,286047005.0,N
1561064335.9,286047005.0,N
1561064355.8,286047006.0,N
1561064375.6,286047003.1,N
1561064395.4,286047005.7,N
